Total_Precipitation_Accumulation
1.17 1.07 1.03 1.05 0.98 0.94 0.91 0.90 0.89 0.85 0.76 0.71 0.66 0.58 0.54 0.54 0.47 0.41 0.34 0.33 0.34 0.41 0.60 0.91 1.27 1.58 1.79 1.87 1.86 1.67 1.56 1.41 1.26 1.17 1.12 1.18 1.20 1.18 1.24 1.39 1.39 1.32 1.31
1.16 1.10 1.01 0.99 0.93 0.84 0.80 0.80 0.78 0.80 0.77 0.70 0.65 0.55 0.51 0.50 0.49 0.45 0.43 0.44 0.39 0.39 0.50 0.73 1.00 1.32 1.69 1.95 2.02 1.94 1.77 1.66 1.49 1.33 1.25 1.23 1.26 1.23 1.22 1.29 1.39 1.38 1.34
1.25 1.21 1.11 1.00 0.97 0.94 0.90 0.87 0.84 0.83 0.78 0.72 0.67 0.60 0.52 0.47 0.47 0.48 0.49 0.49 0.47 0.46 0.52 0.68 0.84 1.07 1.49 1.91 2.13 2.21 2.06 1.87 1.73 1.56 1.35 1.23 1.23 1.28 1.26 1.30 1.40 1.48 1.48
1.39 1.31 1.23 1.13 1.09 1.11 1.09 1.03 0.93 0.88 0.81 0.72 0.67 0.62 0.57 0.50 0.45 0.46 0.51 0.51 0.49 0.49 0.53 0.60 0.74 0.97 1.27 1.65 2.04 2.31 2.38 2.18 2.05 1.94 1.71 1.46 1.30 1.31 1.35 1.36 1.43 1.53 1.63
1.68 1.47 1.35 1.31 1.32 1.33 1.26 1.17 1.08 0.96 0.88 0.80 0.73 0.68 0.62 0.56 0.51 0.49 0.48 0.51 0.52 0.50 0.52 0.55 0.60 0.74 0.98 1.36 1.88 2.35 2.69 2.68 2.50 2.36 2.14 1.91 1.64 1.46 1.47 1.46 1.50 1.59 1.72
1.85 1.72 1.55 1.47 1.48 1.49 1.44 1.31 1.19 1.11 1.02 0.98 0.94 0.85 0.72 0.64 0.59 0.55 0.50 0.51 0.53 0.52 0.51 0.56 0.60 0.61 0.69 0.88 1.30 1.90 2.43 2.78 2.83 2.73 2.59 2.36 2.13 1.89 1.77 1.70 1.66 1.73 1.86
1.83 1.82 1.64 1.57 1.46 1.42 1.38 1.34 1.29 1.27 1.20 1.18 1.28 1.19 1.01 0.85 0.75 0.68 0.62 0.59 0.59 0.60 0.66 0.70 0.75 0.72 0.68 0.71 0.79 1.12 1.72 2.40 2.81 2.97 2.96 2.90 2.66 2.39 2.17 2.01 1.94 1.97 2.06
1.83 1.91 1.81 1.70 1.64 1.55 1.50 1.50 1.47 1.43 1.37 1.27 1.36 1.45 1.34 1.21 0.98 0.76 0.70 0.64 0.66 0.71 0.79 0.83 0.87 0.87 0.83 0.74 0.62 0.72 1.02 1.65 2.38 2.94 3.09 3.09 3.14 2.96 2.62 2.37 2.26 2.30 2.37
1.72 1.85 1.92 1.87 1.83 1.79 1.70 1.57 1.54 1.53 1.54 1.42 1.32 1.59 1.61 1.27 0.95 0.77 0.67 0.60 0.61 0.63 0.64 0.69 0.75 0.80 0.88 0.91 0.77 0.69 0.76 1.09 1.70 2.56 3.14 3.24 3.31 3.47 3.29 2.85 2.57 2.51 2.56
1.73 1.76 1.83 1.86 1.84 1.80 1.73 1.61 1.53 1.47 1.55 1.59 1.44 1.30 1.25 1.18 1.18 0.98 0.74 0.62 0.60 0.60 0.58 0.57 0.59 0.64 0.75 0.89 0.94 0.88 0.86 0.94 1.27 1.88 2.67 3.32 3.52 3.72 3.88 3.54 3.05 2.76 2.65
1.78 1.73 1.74 1.79 1.84 1.81 1.77 1.70 1.64 1.64 1.64 1.62 1.56 1.39 1.21 1.06 1.04 1.14 0.95 0.76 0.69 0.66 0.63 0.60 0.59 0.59 0.61 0.72 0.87 0.93 1.01 1.02 1.20 1.54 2.03 2.84 3.63 4.00 4.21 4.07 3.52 3.02 2.74
1.83 1.77 1.67 1.71 1.80 1.83 1.82 1.81 1.78 1.76 1.78 1.69 1.58 1.50 1.49 1.47 1.26 1.18 1.06 0.82 0.77 0.73 0.71 0.70 0.68 0.65 0.63 0.64 0.75 0.92 0.99 1.07 1.15 1.32 1.53 2.02 2.94 3.80 4.17 4.17 3.86 3.41 2.98
1.94 1.79 1.69 1.63 1.68 1.70 1.70 1.73 1.83 1.86 1.87 1.88 1.83 1.69 1.56 1.49 1.41 1.41 1.44 1.21 0.99 0.85 0.84 0.82 0.80 0.79 0.75 0.73 0.80 0.88 0.88 1.02 1.16 1.25 1.29 1.40 1.88 2.85 3.79 4.21 4.06 3.73 3.44
1.89 1.78 1.71 1.63 1.58 1.59 1.63 1.67 1.72 1.78 1.82 1.82 1.79 1.75 1.70 1.60 1.56 1.57 1.64 1.68 1.52 1.17 1.02 0.94 0.85 0.84 0.86 0.88 0.94 1.00 0.87 1.01 1.15 1.23 1.34 1.36 1.48 1.87 2.72 3.79 4.42 4.14 3.71
1.95 1.86 1.76 1.73 1.67 1.64 1.63 1.63 1.64 1.64 1.69 1.76 1.76 1.71 1.71 1.60 1.60 1.62 1.60 1.69 1.90 1.71 1.19 0.93 0.89 0.89 0.88 0.94 1.06 1.01 0.90 1.04 1.17 1.18 1.26 1.34 1.40 1.48 1.81 2.54 3.58 4.32 4.27
2.07 2.09 1.99 1.88 1.78 1.79 1.76 1.71 1.63 1.55 1.58 1.64 1.73 1.79 1.77 1.66 1.58 1.60 1.62 1.58 1.61 1.73 1.47 0.97 0.90 0.94 0.98 0.99 1.11 1.02 0.98 1.13 1.18 1.13 1.16 1.24 1.32 1.44 1.57 1.87 2.49 3.49 4.16
2.16 2.20 2.20 2.12 1.99 1.91 1.88 1.86 1.80 1.72 1.68 1.61 1.62 1.67 1.69 1.62 1.62 1.61 1.60 1.52 1.45 1.54 1.59 1.07 0.88 0.91 1.00 1.05 1.11 1.08 1.05 1.06 1.06 1.06 1.10 1.19 1.26 1.35 1.49 1.68 1.96 2.58 3.49
2.20 2.20 2.33 2.32 2.21 2.10 2.02 2.03 2.02 1.94 1.90 1.80 1.70 1.64 1.61 1.64 1.71 1.68 1.62 1.52 1.43 1.38 1.51 1.33 0.98 0.95 1.03 1.10 1.16 1.19 1.19 1.16 1.11 1.19 1.20 1.22 1.27 1.31 1.44 1.60 1.78 2.08 2.67
2.09 2.18 2.34 2.46 2.35 2.27 2.17 2.04 2.07 2.16 2.12 2.04 1.95 1.91 1.83 1.78 1.85 1.83 1.74 1.59 1.45 1.36 1.36 1.37 1.13 1.00 1.06 1.15 1.29 1.30 1.27 1.25 1.17 1.26 1.29 1.32 1.34 1.32 1.37 1.48 1.65 1.84 2.11
1.89 2.10 2.27 2.43 2.46 2.47 2.54 2.42 2.31 2.21 2.20 2.19 2.13 2.06 2.08 2.05 2.00 1.96 1.94 1.72 1.51 1.44 1.39 1.41 1.28 1.10 1.06 1.13 1.40 1.52 1.50 1.41 1.33 1.22 1.29 1.33 1.39 1.38 1.36 1.37 1.44 1.59 1.85
1.81 1.93 2.06 2.21 2.29 2.51 3.00 3.08 2.65 2.15 1.98 1.98 1.92 1.85 1.92 2.10 2.18 2.18 2.17 1.98 1.79 1.76 1.68 1.64 1.50 1.32 1.20 1.29 1.51 1.58 1.66 1.59 1.57 1.42 1.28 1.21 1.21 1.21 1.24 1.31 1.40 1.50 1.70
1.76 1.85 1.90 1.92 1.99 2.23 2.89 3.01 2.45 1.96 1.76 1.76 1.76 1.68 1.67 1.81 1.89 1.96 2.09 2.10 2.10 2.14 2.09 1.95 1.75 1.57 1.34 1.28 1.41 1.70 1.83 1.92 1.98 1.65 1.46 1.38 1.25 1.29 1.28 1.27 1.37 1.41 1.59
1.67 1.69 1.72 1.71 1.72 1.97 2.51 2.57 2.28 1.87 1.66 1.53 1.50 1.50 1.49 1.50 1.62 1.51 1.66 1.80 1.88 2.05 2.18 2.13 2.06 1.73 1.48 1.39 1.57 1.81 1.89 1.99 1.97 1.78 1.76 1.86 1.59 1.48 1.41 1.42 1.50 1.44 1.58
1.63 1.57 1.55 1.54 1.56 1.74 2.27 2.41 2.25 1.83 1.69 1.56 1.48 1.36 1.32 1.32 1.46 1.53 1.56 1.56 1.49 1.60 1.85 1.99 2.09 1.89 1.67 1.65 1.88 2.12 2.24 2.27 2.16 2.03 1.97 2.17 1.86 1.67 1.57 1.51 1.56 1.51 1.53
1.50 1.46 1.42 1.45 1.43 1.56 2.09 2.46 2.32 1.86 1.81 1.70 1.56 1.48 1.39 1.25 1.53 1.67 1.55 1.47 1.35 1.39 1.56 1.84 2.03 2.06 2.07 2.13 2.25 2.50 2.66 2.74 2.65 2.30 2.08 2.19 2.05 1.81 1.77 1.80 1.74 1.67 1.54
1.32 1.33 1.29 1.30 1.29 1.40 1.85 2.33 2.40 1.87 1.77 1.65 1.54 1.52 1.65 1.57 1.67 1.63 1.44 1.47 1.48 1.32 1.27 1.36 1.46 1.58 1.59 1.67 1.97 2.19 2.40 2.65 2.64 2.61 2.19 2.16 2.16 2.10 2.35 2.05 1.76 1.52 1.40